Wind_Speed
38 36 35 35 34 32 32 32 32 30 29 27 26 24 23 24 22 22 21 20 19 19 19 19 18 15 14 13 14 14 15 16 17 17 18 18 18 17 16 16 17 16 17 18
41 40 39 38 37 36 35 33 34 33 32 29 29 29 28 26 25 25 24 23 24 24 22 22 20 19 17 16 17 17 17 18 18 19 20 20 20 20 18 18 18 18 18 20
44 42 42 42 39 37 37 36 35 35 33 31 32 32 32 31 29 27 27 27 27 26 25 24 24 24 21 19 20 20 20 20 20 22 23 23 21 21 22 21 21 21 21 22
45 44 45 42 39 39 39 38 37 36 35 35 34 34 33 32 31 30 30 30 30 29 29 28 26 25 24 24 24 23 23 24 23 24 25 23 24 24 24 25 24 24 24 25
45 46 46 43 41 40 40 39 38 37 37 37 35 36 36 35 34 33 33 33 32 32 31 30 28 27 27 26 26 26 26 26 26 26 27 27 27 27 27 26 26 26 27 28
44 45 46 43 42 43 41 41 40 40 39 38 38 38 39 37 37 36 36 37 36 35 34 32 30 30 29 28 28 28 28 29 28 28 29 29 29 29 29 28 28 28 29 31
45 46 46 44 42 43 44 43 41 41 41 40 40 40 40 39 39 39 39 38 38 37 36 35 34 34 32 31 30 30 30 31 31 30 30 31 31 31 31 30 30 31 32 33
45 47 47 45 44 44 44 44 44 43 43 42 42 42 42 42 41 41 41 40 40 39 38 37 36 35 34 32 32 32 33 33 33 32 32 33 32 33 32 32 32 33 34 34
45 46 46 46 46 45 45 45 45 45 45 45 44 44 44 44 44 44 43 42 41 41 39 38 38 37 36 34 32 33 34 34 33 33 33 34 34 34 34 34 35 35 36 35
44 45 46 46 46 46 46 46 46 46 46 46 46 47 47 47 45 45 44 43 43 42 41 40 40 38 37 37 34 34 35 36 35 35 35 35 36 35 35 36 36 37 36 36
43 44 45 45 46 46 46 46 46 47 47 47 47 47 47 46 46 46 45 44 44 43 43 42 41 40 40 38 36 36 36 37 36 36 36 37 37 37 37 37 38 37 37 37
40 41 43 44 45 45 45 45 46 46 47 47 48 48 48 48 47 47 46 46 45 44 43 42 41 40 39 39 39 38 38 38 38 38 38 38 39 39 39 39 39 38 38 38
38 39 41 41 41 41 42 43 43 43 45 46 46 47 47 48 48 48 47 46 46 45 43 41 41 41 40 41 40 39 39 39 39 39 39 39 39 40 39 39 39 39 39 39
36 37 38 39 39 39 38 39 39 39 42 43 43 43 44 46 46 46 46 45 45 44 43 42 41 41 41 41 41 40 39 39 40 40 40 40 40 39 39 38 39 39 39 39
33 35 36 36 36 37 37 36 36 36 36 37 38 40 42 43 44 44 44 43 42 42 42 41 42 42 42 42 41 42 41 40 41 40 40 40 40 39 39 39 39 39 39 39
32 32 33 34 33 33 34 33 33 34 35 35 36 37 38 38 39 40 41 42 42 42 42 42 42 42 42 42 42 42 41 41 40 40 40 40 40 39 40 39 39 40 40 40
29 29 30 31 31 30 30 31 31 33 34 34 34 34 34 34 35 36 37 39 40 41 41 41 41 41 40 40 40 40 39 39 39 39 38 38 39 39 39 39 39 39 40 40
26 27 28 28 26 25 27 29 31 32 31 31 31 32 33 33 34 35 36 37 37 38 39 39 39 40 39 39 39 39 39 40 39 38 38 38 39 39 38 39 39 39 39 38
23 24 25 26 26 25 27 27 27 28 29 29 29 30 31 33 34 34 33 35 36 37 37 37 36 37 38 38 39 39 39 39 39 38 38 38 39 39 38 38 38 38 38 37
21 23 25 25 24 24 25 26 25 24 25 26 27 27 29 31 31 31 32 33 33 34 34 35 35 35 36 36 37 37 37 37 37 37 37 37 38 37 37 37 36 36 36 36
17 19 22 23 22 21 21 21 22 22 23 26 28 28 27 29 30 31 31 32 31 32 33 33 33 34 35 35 34 34 34 35 35 36 36 35 35 35 34 34 34 34 34 34
15 16 17 19 19 19 19 20 19 20 22 23 25 26 27 27 28 28 29 30 30 30 31 31 31 31 32 32 31 31 31 31 31 31 31 31 32 32 32 32 32 32 33 32
13 14 15 16 17 16 17 18 18 19 20 21 21 22 23 24 26 27 27 27 27 28 28 28 28 27 28 29 29 29 28 28 28 28 28 29 30 31 31 31 31 31 32 32
11 12 13 14 15 16 16 17 18 18 19 20 21 21 21 22 23 23 23 23 24 25 25 25 25 25 24 24 25 25 26 26 27 27 28 29 29 29 29 29 29 30 30 30
11 11 12 13 13 14 14 15 16 16 17 17 18 19 19 19 19 20 20 20 20 21 21 22 22 22 23 23 24 24 24 25 25 25 26 26 26 27 28 27 28 28 28 29
11 11 11 11 12 13 13 14 15 16 16 16 16 17 17 17 17 17 17 18 18 19 20 20 21 21 22 22 22 22 23 24 24 25 25 25 26 26 27 27 28 28 28 28
10 11 11 12 12 12 12 13 13 14 14 14 14 15 15 15 16 16 16 17 18 19 19 20 20 21 21 21 21 22 22 24 24 25 25 25 26 26 26 27 27 27 27 28
Wind_Direction
231 228 226 226 226 228 233 236 237 238 239 238 240 248 255 258 260 265 269 273 279 281 283 288 290 288 297 299 302 306 308 310 312 313 315 317 315 316 316 320 324 326 326 326
232 231 230 230 229 230 233 235 237 237 238 238 241 245 250 256 260 263 266 272 277 281 286 287 288 292 294 293 296 298 299 301 303 305 306 307 307 310 313 316 317 319 322 325
234 232 232 232 231 231 231 231 235 237 238 237 241 244 249 253 257 262 268 272 276 281 284 287 287 290 289 292 297 296 296 295 296 299 302 303 304 305 310 314 319 318 318 319
237 235 234 233 232 231 231 231 233 237 238 238 241 245 249 253 255 258 262 268 273 277 280 282 283 286 287 287 290 291 289 288 290 293 296 299 300 302 304 307 312 313 314 315
239 239 238 235 234 233 234 233 233 236 237 238 241 245 246 250 255 259 262 266 270 274 277 277 280 282 281 283 285 286 287 288 289 290 291 295 299 302 302 301 304 307 308 310
238 239 239 236 236 236 236 236 235 237 238 239 241 245 247 251 254 258 262 266 268 271 274 276 278 279 279 281 282 283 282 283 284 286 288 292 295 295 297 298 301 303 305 308
240 240 240 239 238 238 238 238 237 238 240 240 241 245 249 252 253 257 261 265 267 269 271 273 275 277 278 280 280 280 280 281 281 283 285 287 291 293 295 296 297 300 302 305
242 242 241 240 241 240 240 239 239 240 241 242 243 244 247 250 253 256 260 263 265 266 269 271 273 275 275 275 277 278 278 280 280 282 285 287 290 292 293 294 294 297 300 302
243 244 244 243 242 242 242 240 240 240 241 242 244 245 246 249 251 254 257 258 261 264 266 269 271 272 272 272 273 275 277 278 278 281 284 286 288 288 290 292 294 296 297 299
244 245 245 245 244 243 242 241 241 241 242 242 244 246 248 249 251 253 255 256 258 261 265 268 270 270 271 271 272 274 277 280 280 280 281 283 286 286 288 291 292 294 295 296
246 246 246 246 245 245 244 243 242 241 242 243 244 245 246 248 249 251 253 256 257 260 263 266 269 270 270 271 273 274 275 277 278 279 281 283 287 287 288 289 290 292 293 294
246 246 247 247 246 246 244 243 242 242 242 243 245 245 246 247 249 252 254 255 258 260 263 265 267 268 269 271 273 273 275 277 278 280 282 283 285 287 288 288 289 289 290 292
246 247 248 248 247 245 244 242 241 242 242 243 245 246 248 249 250 252 254 256 258 261 264 264 264 267 269 271 272 273 275 276 278 280 283 284 285 285 287 288 289 290 291 291
246 247 248 249 248 245 243 240 240 242 242 242 244 246 247 248 250 252 254 257 258 260 262 263 263 266 269 270 271 273 274 276 278 279 281 283 285 286 287 289 289 289 291 292
245 245 245 249 250 249 246 243 239 238 237 240 242 243 245 247 249 252 254 256 256 257 260 263 265 265 267 269 271 274 275 276 277 279 281 282 283 284 286 287 288 289 289 291
246 246 247 251 252 250 247 245 240 237 237 239 242 243 245 248 252 255 256 257 258 258 261 263 265 265 268 269 272 273 275 276 276 277 279 281 283 284 284 285 287 288 289 289
249 248 247 249 252 251 251 250 248 244 242 243 244 246 247 250 253 255 258 259 261 260 261 262 263 265 266 268 270 271 274 275 276 277 278 280 283 284 284 286 288 289 291 289
249 250 248 248 252 253 253 252 253 253 249 248 248 248 248 249 251 254 257 260 261 261 261 261 263 264 266 267 269 270 272 273 275 276 278 280 283 284 284 285 287 288 289 290
248 252 251 250 256 261 257 256 260 257 252 250 250 252 253 254 256 258 260 262 262 264 265 264 265 267 267 268 269 271 272 273 274 276 278 279 281 282 284 286 287 288 290 291
251 252 252 253 259 263 261 256 255 256 252 252 256 258 258 258 259 260 260 261 263 265 266 265 265 267 269 271 272 272 273 274 275 277 278 279 281 282 284 285 287 288 290 291
255 256 255 257 262 263 260 258 257 255 253 253 256 258 260 259 258 259 260 261 263 264 266 266 266 267 270 272 274 274 272 273 274 275 276 278 281 283 285 286 288 289 291 291
260 261 261 262 264 262 262 263 262 257 256 255 257 259 261 261 261 262 262 262 263 265 265 265 266 268 270 272 274 276 276 276 276 278 278 279 282 284 286 288 289 290 291 292
268 267 264 264 262 262 263 266 265 262 259 258 258 261 263 263 263 264 265 265 264 267 267 265 266 269 272 273 274 276 277 277 278 280 281 283 284 285 286 288 289 290 291 292
272 270 267 265 263 262 263 265 264 263 263 261 262 264 265 265 265 265 266 267 267 269 270 269 271 273 274 274 275 276 279 281 282 283 285 285 284 285 287 288 289 290 290 291
271 268 269 270 268 265 264 264 266 267 268 267 266 265 266 267 268 268 267 267 267 268 269 271 273 273 274 277 279 280 282 284 285 286 286 286 286 287 289 290 291 291 291 291
273 273 275 275 273 270 269 267 267 269 271 270 268 267 267 268 270 269 268 268 268 269 271 273 275 277 279 282 284 284 284 285 285 286 286 287 288 289 290 291 291 290 290 291
275 277 278 279 279 277 276 275 273 269 267 268 270 270 270 269 269 269 268 269 270 272 274 276 278 279 281 282 283 284 285 286 287 287 287 288 290 291 292 291 291 290 291 293
Height
5870 5874 5877 5880 5884 5887 5889 5890 5893 5895 5897 5900 5902 5903 5904 5904 5905 5905 5906 5906 5907 5907 5906 5906 5906 5905 5904 5904 5902 5901 5900 5899 5897 5895 5892 5890 5887 5884 5882 5880 5878 5876 5874 5871
5861 5865 5868 5872 5876 5879 5881 5883 5885 5888 5890 5893 5895 5896 5898 5899 5900 5900 5900 5901 5901 5900 5900 5901 5900 5899 5899 5898 5897 5896 5896 5894 5893 5891 5889 5886 5883 5880 5878 5876 5874 5872 5870 5867
5851 5855 5858 5862 5868 5870 5873 5875 5878 5880 5884 5886 5888 5889 5891 5893 5894 5895 5895 5895 5895 5895 5896 5896 5895 5894 5893 5893 5892 5891 5890 5889 5888 5886 5883 5880 5877 5875 5874 5873 5870 5868 5865 5863
5841 5847 5848 5856 5859 5861 5864 5867 5870 5873 5875 5878 5880 5882 5884 5886 5887 5889 5889 5890 5890 5890 5890 5889 5889 5888 5887 5886 5887 5886 5885 5883 5881 5880 5878 5874 5872 5871 5870 5868 5865 5863 5860 5858
5831 5834 5839 5846 5850 5852 5855 5858 5862 5864 5867 5869 5872 5874 5876 5878 5879 5881 5882 5883 5883 5883 5882 5882 5882 5881 5881 5880 5879 5879 5878 5876 5874 5873 5871 5869 5867 5866 5864 5861 5859 5857 5855 5851
5820 5823 5827 5836 5840 5842 5846 5848 5853 5855 5858 5861 5863 5865 5868 5870 5871 5873 5874 5874 5875 5875 5875 5875 5874 5873 5872 5872 5872 5872 5871 5869 5868 5867 5864 5862 5860 5859 5857 5855 5853 5850 5848 5845
5809 5811 5816 5824 5829 5832 5836 5840 5843 5845 5848 5851 5854 5856 5859 5861 5862 5864 5865 5866 5866 5867 5867 5867 5866 5865 5864 5864 5864 5864 5862 5861 5860 5858 5856 5854 5852 5851 5849 5847 5845 5843 5840 5837
5798 5801 5808 5813 5817 5821 5824 5828 5832 5835 5838 5841 5843 5846 5848 5850 5852 5854 5855 5856 5856 5857 5857 5857 5857 5857 5856 5855 5855 5855 5853 5852 5850 5849 5848 5846 5844 5843 5841 5839 5837 5834 5832 5829
5788 5792 5797 5801 5804 5808 5812 5817 5820 5824 5827 5830 5833 5834 5837 5839 5841 5843 5844 5844 5846 5847 5847 5847 5848 5848 5847 5846 5845 5845 5844 5842 5840 5839 5838 5837 5835 5833 5832 5830 5828 5825 5823 5820
5777 5781 5784 5788 5792 5796 5800 5804 5808 5811 5814 5817 5820 5822 5825 5827 5829 5831 5832 5833 5834 5835 5835 5836 5837 5837 5836 5836 5835 5835 5834 5832 5830 5830 5828 5826 5824 5823 5822 5820 5818 5816 5813 5811
5766 5770 5773 5776 5780 5784 5788 5792 5795 5798 5801 5804 5808 5810 5812 5814 5816 5818 5820 5822 5823 5824 5825 5826 5825 5825 5826 5826 5825 5825 5824 5823 5821 5820 5819 5817 5815 5814 5812 5810 5808 5806 5804 5801
5756 5760 5762 5765 5768 5772 5775 5779 5782 5785 5788 5791 5794 5797 5799 5801 5803 5806 5808 5810 5811 5812 5814 5815 5815 5815 5816 5815 5814 5813 5813 5812 5811 5810 5809 5807 5805 5804 5801 5799 5797 5795 5793 5791
5747 5749 5752 5754 5757 5759 5761 5764 5767 5771 5773 5778 5781 5783 5786 5789 5791 5793 5795 5797 5799 5801 5801 5802 5803 5804 5804 5804 5803 5802 5801 5801 5800 5799 5798 5797 5795 5793 5791 5789 5787 5785 5782 5780
5737 5739 5741 5743 5745 5747 5748 5751 5754 5757 5760 5764 5768 5771 5774 5776 5778 5781 5783 5785 5787 5789 5790 5790 5791 5792 5792 5792 5792 5791 5790 5789 5789 5788 5787 5786 5784 5782 5780 5778 5776 5774 5771 5769
5728 5730 5732 5734 5736 5737 5737 5740 5743 5746 5749 5752 5755 5758 5762 5764 5766 5769 5771 5773 5775 5777 5778 5779 5779 5780 5780 5780 5780 5779 5777 5777 5777 5776 5775 5774 5772 5771 5769 5767 5765 5763 5760 5757
5719 5721 5723 5726 5728 5729 5729 5731 5733 5736 5739 5742 5744 5746 5750 5753 5755 5757 5760 5762 5763 5765 5766 5767 5767 5767 5768 5768 5768 5767 5766 5766 5765 5764 5763 5762 5761 5759 5758 5756 5753 5751 5749 5746
5711 5713 5716 5718 5720 5721 5722 5723 5725 5727 5730 5733 5735 5737 5739 5742 5745 5747 5749 5751 5752 5753 5753 5754 5754 5755 5756 5756 5756 5756 5755 5754 5753 5753 5752 5751 5749 5747 5746 5744 5741 5739 5736 5733
5704 5706 5708 5710 5712 5713 5714 5716 5717 5718 5721 5724 5727 5729 5731 5733 5735 5737 5738 5740 5741 5741 5742 5742 5743 5744 5744 5744 5744 5744 5744 5743 5743 5742 5741 5740 5738 5736 5734 5732 5730 5727 5725 5722
5698 5699 5701 5704 5706 5707 5708 5709 5710 5709 5711 5715 5718 5720 5723 5724 5725 5727 5728 5730 5730 5731 5732 5732 5733 5733 5733 5733 5733 5733 5732 5732 5731 5730 5729 5728 5726 5724 5722 5720 5718 5716 5714 5711
5693 5695 5696 5698 5699 5700 5701 5701 5702 5702 5704 5707 5710 5712 5713 5715 5716 5717 5718 5720 5721 5721 5721 5722 5722 5723 5723 5722 5721 5721 5721 5720 5719 5718 5717 5716 5715 5713 5711 5709 5707 5705 5703 5700
5688 5690 5691 5692 5693 5693 5694 5695 5695 5696 5698 5701 5702 5704 5705 5706 5707 5708 5709 5710 5711 5711 5711 5712 5712 5712 5712 5712 5711 5710 5709 5709 5708 5707 5706 5705 5703 5702 5700 5698 5697 5694 5692 5690
5684 5685 5685 5686 5687 5688 5688 5689 5690 5691 5692 5693 5695 5696 5697 5697 5698 5699 5700 5701 5701 5702 5702 5702 5702 5702 5701 5701 5701 5700 5700 5699 5698 5697 5695 5694 5693 5692 5690 5688 5686 5684 5682 5679
5679 5680 5680 5680 5681 5682 5683 5684 5685 5686 5686 5687 5688 5688 5689 5690 5690 5691 5692 5692 5692 5693 5693 5693 5693 5693 5692 5692 5692 5691 5691 5690 5689 5687 5686 5684 5683 5682 5680 5678 5676 5674 5672 5669
5676 5676 5676 5676 5676 5677 5678 5678 5679 5680 5680 5681 5681 5682 5682 5682 5683 5684 5684 5684 5684 5685 5685 5685 5685 5685 5684 5684 5683 5683 5682 5680 5679 5678 5677 5675 5674 5672 5670 5669 5666 5664 5662 5660
5672 5672 5672 5672 5672 5673 5673 5673 5674 5674 5674 5675 5675 5675 5675 5676 5676 5677 5677 5677 5677 5677 5677 5677 5677 5677 5677 5677 5676 5675 5674 5672 5671 5669 5668 5666 5665 5663 5661 5659 5657 5655 5653 5650
5668 5668 5668 5668 5668 5668 5668 5668 5669 5669 5669 5669 5669 5669 5669 5669 5669 5670 5670 5670 5670 5670 5670 5671 5671 5670 5670 5669 5668 5667 5666 5664 5663 5661 5660 5658 5656 5654 5652 5650 5648 5646 5644 5641
5664 5664 5664 5664 5663 5663 5663 5663 5663 5663 5663 5663 5663 5663 5663 5664 5664 5664 5664 5664 5664 5664 5664 5664 5664 5663 5663 5662 5661 5659 5658 5657 5655 5653 5651 5650 5648 5646 5644 5642 5640 5637 5635 5632